Weather in Troitskoe

Russia / Voronezh Oblast     51°17′15″N   41°28′22″E
temp.,
°C
wind,
m/s
gust,
m/s
humid.,
%
clouds,
%
prec.,
mm/h
press.,
hPa
HPBL,
m
7 march, sun
sun700:00−10nw59910 0.0 1017278
03:00−10wnw49900 0.0 1018215
06:00−10wsw38930 0.0 1018170
09:00−6wsw510860 0.0 1017507
12:00−3wsw7117860 0.0 10151108
15:00−2sw7137080 0.0 10111089
18:00−2sw71666100 0.0 1008907
21:00−2sw91871100 0.0 10061024
8 march, mon
mon800:00−2wsw101793100 0.3 10041004
03:00−2w81496100 0.7 1005678
06:00−4sw488599 0.3 1005171
09:00−3wsw349099 0.4 1005356
12:000wsw71296100 1.5 10051001
15:00−1wnw4987100 4.1 1005671
18:00−3w488472 0.3 1006199
21:00−6wnw349054 0.3 100865
9 march, tue
tue900:00−8wnw33890 0.0 100944
03:00−8wnw239525 0.0 101085
06:00−8nnw3495100 0.6 1011178
09:00−9nnw358984 0.6 1013217
12:00−7nw358619 0.0 1014418
15:00−6nw468628 0.0 1015621
18:00−9nnw239292 0.0 101647
21:00−10nnw379375 0.0 1018239
10 march, wed
wed1000:00−13nw369354 0.1 1019186
03:00−15nw369328 0.1 1021177
06:00−16nw38940 0.0 1022202
09:00−15nnw47919 0.0 1024305
12:00−13nnw578235 0.0 1025561
15:00−13nw468218 0.0 1026517
18:00−15nnw35900 0.0 1026202
21:00−17n35910 0.0 1028141
11 march, thu
thu1100:00−19n25880 0.0 1029150
03:00−20nne22900 0.0 103074
06:00−20nne22900 0.0 103146
09:00−18e12810 0.0 1032201
12:00−13s22716 0.0 1032398
15:00−11ssw226415 0.0 1032494
18:00−13sse12760 0.0 103121
21:00−14sse34830 0.0 103256